AFR995 FAOR-LFPG

Flight info

Callsign AFR995
Flight time N/A
Altitude 36000
Route FAOR/03L NESA1A NESAN Q40 EVIPI DCT IXATA DCT APOSO DCT ERKAR DCT OVMEG DCT ILDOR DCT DJL DJL9E LFPG/OKI1X I08R
Aircraft A388/J-V/N

Departure

Time N/A
Airport O.R. Tambo International Airport (FAOR)

Arrival

Time 2026-05-01 09:04
Airport Charles de Gaulle International Airport (LFPG)
Time Latitude Longitude Altitude Speed Heading
2026-04-30 22:41 -26.12919 28.23656 5551 ft 0 kts 186°
2026-04-30 22:49 -26.12913 28.23657 5551 ft 3 kts 186°
2026-04-30 22:49 -26.12858 28.23657 5553 ft 3 kts 162°
2026-04-30 22:50 -26.12819 28.23590 5553 ft 3 kts 104°
2026-04-30 22:51 -26.12816 28.23568 5553 ft 0 kts 98°
2026-04-30 22:52 -26.12817 28.23574 5554 ft 3 kts 98°
2026-04-30 22:52 -26.12829 28.23679 5551 ft 9 kts 97°
2026-04-30 22:53 -26.12894 28.23768 5553 ft 9 kts 184°
2026-04-30 22:53 -26.13080 28.23715 5553 ft 16 kts 195°
2026-04-30 22:53 -26.13195 28.23679 5551 ft 18 kts 195°
2026-04-30 22:54 -26.13447 28.23601 5556 ft 21 kts 194°
2026-04-30 22:55 -26.13854 28.23478 5560 ft 19 kts 195°
2026-04-30 22:55 -26.14103 28.23400 5566 ft 18 kts 196°
2026-04-30 22:56 -26.14355 28.23320 5569 ft 20 kts 195°
2026-04-30 22:56 -26.14606 28.23347 5566 ft 9 kts 103°
2026-04-30 22:57 -26.14570 28.23460 5568 ft 8 kts 15°
2026-04-30 22:57 -26.14554 28.23464 5569 ft 0 kts 14°
2026-04-30 22:58 -26.14473 28.23488 5567 ft 38 kts 15°
2026-04-30 22:59 -26.12057 28.24234 5543 ft 176 kts 15°
2026-04-30 22:59 -26.08517 28.25263 6686 ft 176 kts
2026-05-01 07:23 39.41405 9.88957 36211 ft 447 kts 333°
2026-05-01 07:24 39.50034 9.84370 36210 ft 446 kts 333°
2026-05-01 07:24 39.55789 9.81303 36226 ft 446 kts 333°
2026-05-01 07:25 39.61526 9.78241 36238 ft 446 kts 333°
2026-05-01 07:25 39.67222 9.75195 36251 ft 445 kts 333°
2026-05-01 07:26 39.72964 9.72119 36255 ft 445 kts 333°
2026-05-01 07:26 39.78697 9.69043 36254 ft 445 kts 333°
2026-05-01 07:27 39.84433 9.65958 36249 ft 445 kts 333°
2026-05-01 07:27 39.90128 9.62891 36239 ft 445 kts 333°
2026-05-01 07:28 39.95854 9.59801 36228 ft 446 kts 333°
2026-05-01 07:28 40.01601 9.56695 36215 ft 446 kts 333°
2026-05-01 07:29 40.07339 9.53588 36219 ft 446 kts 333°
2026-05-01 07:29 40.13083 9.50470 36228 ft 446 kts 333°
2026-05-01 07:30 40.18789 9.47369 36220 ft 446 kts 333°
2026-05-01 07:30 40.24556 9.44229 36212 ft 446 kts 333°
2026-05-01 07:31 40.30280 9.41106 36220 ft 446 kts 333°
2026-05-01 07:32 40.44567 9.33288 36221 ft 446 kts 333°
2026-05-01 07:33 40.53171 9.28561 36229 ft 446 kts 333°
2026-05-01 07:33 40.61742 9.23839 36238 ft 447 kts 333°
2026-05-01 07:34 40.70350 9.19085 36258 ft 447 kts 334°
2026-05-01 07:35 40.76073 9.15916 36264 ft 446 kts 334°
2026-05-01 07:35 40.81793 9.12742 36259 ft 446 kts 334°
2026-05-01 07:36 40.87479 9.09582 36266 ft 445 kts 334°
2026-05-01 07:36 40.93201 9.06396 36255 ft 445 kts 334°
2026-05-01 07:37 41.01738 9.01632 36250 ft 444 kts 334°
2026-05-01 07:37 41.07423 8.98451 36249 ft 444 kts 334°
2026-05-01 07:38 41.13109 8.95264 36243 ft 443 kts 334°
2026-05-01 07:39 41.21613 8.90487 36240 ft 442 kts 334°
2026-05-01 07:39 41.30074 8.85720 36239 ft 441 kts 334°
2026-05-01 07:40 41.35724 8.82529 36234 ft 440 kts 334°
2026-05-01 07:40 41.41363 8.79338 36226 ft 440 kts 334°
2026-05-01 07:41 41.46979 8.76154 36225 ft 440 kts 334°
2026-05-01 07:42 41.55431 8.71352 36221 ft 439 kts 334°
2026-05-01 07:42 41.61028 8.68163 36220 ft 439 kts 334°
2026-05-01 07:43 41.66658 8.64951 36226 ft 439 kts 334°
2026-05-01 07:43 41.74145 8.60669 36227 ft 439 kts 334°
2026-05-01 07:44 41.85384 8.54221 36226 ft 439 kts 334°
2026-05-01 07:45 41.90980 8.51000 36227 ft 439 kts 334°
2026-05-01 07:45 41.96595 8.47764 36226 ft 439 kts 334°
2026-05-01 07:46 42.02208 8.44521 36225 ft 439 kts 334°
2026-05-01 07:47 42.10650 8.39633 36216 ft 439 kts 334°
2026-05-01 07:47 42.16264 8.36374 36212 ft 439 kts 334°
2026-05-01 07:48 42.24677 8.31480 36209 ft 440 kts 334°
2026-05-01 07:48 42.30280 8.28212 36215 ft 440 kts 334°
2026-05-01 07:49 42.38733 8.23270 36223 ft 441 kts 334°
2026-05-01 07:50 42.44328 8.19990 36230 ft 441 kts 334°
2026-05-01 07:50 42.52770 8.15031 36237 ft 441 kts 334°
2026-05-01 07:51 42.58441 8.11690 36240 ft 442 kts 334°
2026-05-01 07:52 42.66879 8.06708 36246 ft 443 kts 335°
2026-05-01 07:52 42.72538 8.03359 36254 ft 443 kts 335°
2026-05-01 07:53 42.81037 7.98315 36262 ft 445 kts 335°
2026-05-01 07:53 42.86721 7.94934 36271 ft 446 kts 335°
2026-05-01 07:55 43.00936 7.86448 36289 ft 448 kts 335°
2026-05-01 07:56 43.15223 7.77875 36291 ft 451 kts 335°
2026-05-01 07:57 43.23867 7.72667 36294 ft 452 kts 335°
2026-05-01 07:58 43.35381 7.65705 36298 ft 454 kts 335°
2026-05-01 07:59 43.46969 7.58669 36304 ft 455 kts 335°
2026-05-01 08:00 43.64405 7.48025 36308 ft 459 kts 335°
2026-05-01 08:01 43.76104 7.40846 36314 ft 462 kts 335°
2026-05-01 08:02 43.84878 7.35441 36324 ft 463 kts 335°
2026-05-01 08:03 43.93730 7.29971 36323 ft 463 kts 335°
2026-05-01 08:03 44.02525 7.24518 36321 ft 464 kts 335°
2026-05-01 08:04 44.14361 7.17151 36328 ft 465 kts 335°
2026-05-01 08:05 44.23218 7.11617 36331 ft 467 kts 335°
2026-05-01 08:06 44.32121 7.06035 36336 ft 468 kts 335°
2026-05-01 08:07 44.44030 6.98541 36339 ft 470 kts 335°
2026-05-01 08:08 44.52957 6.92900 36332 ft 472 kts 335°
2026-05-01 08:09 44.64957 6.85288 36330 ft 474 kts 335°
2026-05-01 08:09 44.70980 6.81454 36332 ft 475 kts 335°
2026-05-01 08:10 44.83057 6.73741 36326 ft 477 kts 335°
2026-05-01 08:11 44.95164 6.65973 36325 ft 478 kts 335°
2026-05-01 08:12 45.04243 6.60123 36317 ft 479 kts 335°
2026-05-01 08:13 45.13341 6.54241 36305 ft 481 kts 335°
2026-05-01 08:13 45.22485 6.48308 36300 ft 482 kts 335°
2026-05-01 08:14 45.28592 6.44334 36297 ft 483 kts 335°
2026-05-01 08:14 45.34719 6.40337 36301 ft 484 kts 335°
2026-05-01 08:15 45.43878 6.34345 36292 ft 485 kts 335°
2026-05-01 08:16 45.50049 6.30296 36289 ft 486 kts 335°
2026-05-01 08:16 45.56160 6.26275 36287 ft 487 kts 335°
2026-05-01 08:17 45.62340 6.22200 36285 ft 487 kts 335°
2026-05-01 08:17 45.68488 6.18136 36285 ft 488 kts 335°
2026-05-01 08:18 45.74631 6.14065 36289 ft 489 kts 335°
2026-05-01 08:19 45.87006 6.05835 36293 ft 490 kts 335°
2026-05-01 08:19 45.93170 6.01721 36293 ft 491 kts 335°
2026-05-01 08:20 45.99352 5.97584 36299 ft 491 kts 335°
2026-05-01 08:20 46.05560 5.93424 36297 ft 492 kts 335°
2026-05-01 08:21 46.11799 5.89233 36317 ft 493 kts 335°
2026-05-01 08:21 46.18000 5.85058 36318 ft 494 kts 335°
2026-05-01 08:22 46.24240 5.80846 36311 ft 494 kts 335°
2026-05-01 08:22 46.30456 5.76640 36308 ft 495 kts 335°
2026-05-01 08:23 46.36707 5.72399 36296 ft 495 kts 335°
2026-05-01 08:23 46.42930 5.68166 36286 ft 496 kts 335°
2026-05-01 08:24 46.49182 5.63904 36279 ft 496 kts 335°
2026-05-01 08:24 46.55443 5.59624 36280 ft 497 kts 335°
2026-05-01 08:25 46.61683 5.55347 36278 ft 498 kts 335°
2026-05-01 08:25 46.67925 5.51058 36273 ft 498 kts 335°
2026-05-01 08:26 46.74196 5.46738 36273 ft 498 kts 335°
2026-05-01 08:26 46.80470 5.42405 36269 ft 499 kts 335°
2026-05-01 08:27 46.86758 5.38052 36271 ft 499 kts 335°
2026-05-01 08:27 46.93018 5.33706 36272 ft 500 kts 335°
2026-05-01 08:28 46.99284 5.29345 36273 ft 500 kts 335°
2026-05-01 08:28 47.05593 5.24942 36269 ft 500 kts 335°
2026-05-01 08:29 47.11847 5.20566 36274 ft 501 kts 335°
2026-05-01 08:29 47.18171 5.16130 36270 ft 501 kts 335°
2026-05-01 08:30 47.24369 5.11567 36269 ft 501 kts 330°
2026-05-01 08:30 47.30268 5.06048 36265 ft 502 kts 324°
2026-05-01 08:31 47.35809 4.99762 36268 ft 502 kts 322°
2026-05-01 08:31 47.40429 4.94580 36272 ft 502 kts 322°
2026-05-01 08:32 47.45999 4.88285 36266 ft 503 kts 322°
2026-05-01 08:32 47.51542 4.81967 36119 ft 500 kts 322°
2026-05-01 08:32 47.54282 4.78835 35874 ft 497 kts 322°
2026-05-01 08:33 47.56995 4.75727 35632 ft 498 kts 322°
2026-05-01 08:33 47.59743 4.72576 35114 ft 500 kts 322°
2026-05-01 08:33 47.62502 4.69409 34196 ft 504 kts 322°
2026-05-01 08:33 47.65302 4.66189 33071 ft 510 kts 322°
2026-05-01 08:34 47.68101 4.62966 32357 ft 506 kts 322°
2026-05-01 08:34 47.70837 4.59811 31928 ft 496 kts 322°
2026-05-01 08:34 47.73546 4.56683 31358 ft 490 kts 322°
2026-05-01 08:34 47.76231 4.53579 30758 ft 486 kts 322°
2026-05-01 08:35 47.78885 4.50508 30152 ft 481 kts 323°
2026-05-01 08:35 47.81523 4.47451 29546 ft 476 kts 323°
2026-05-01 08:35 47.84084 4.44479 28973 ft 470 kts 322°
2026-05-01 08:35 47.86682 4.41461 28386 ft 464 kts 322°
2026-05-01 08:36 47.89183 4.38551 27810 ft 459 kts 322°
2026-05-01 08:36 47.91690 4.35630 27253 ft 455 kts 322°
2026-05-01 08:36 47.94174 4.32733 26665 ft 450 kts 322°
2026-05-01 08:36 47.96628 4.29867 26113 ft 447 kts 322°
2026-05-01 08:37 47.99063 4.27020 25553 ft 443 kts 322°
2026-05-01 08:37 48.01485 4.24185 24985 ft 440 kts 322°
2026-05-01 08:37 48.03889 4.21367 24419 ft 437 kts 322°
2026-05-01 08:37 48.06276 4.18565 23858 ft 435 kts 322°
2026-05-01 08:38 48.08646 4.15780 23236 ft 431 kts 322°
2026-05-01 08:38 48.10958 4.13061 22701 ft 426 kts 322°
2026-05-01 08:38 48.13275 4.10332 22133 ft 421 kts 322°
2026-05-01 08:38 48.15568 4.07628 21588 ft 418 kts 322°
2026-05-01 08:39 48.17839 4.04946 21006 ft 414 kts 322°
2026-05-01 08:39 48.20095 4.02279 20464 ft 411 kts 321°
2026-05-01 08:39 48.22331 3.99634 19907 ft 408 kts 321°
2026-05-01 08:39 48.24560 3.97021 19353 ft 404 kts 324°
2026-05-01 08:40 48.29388 3.92932 18761 ft 399 kts 332°
2026-05-01 08:40 48.31842 3.90972 18533 ft 398 kts 332°
2026-05-01 08:40 48.34282 3.89009 18265 ft 396 kts 332°
2026-05-01 08:41 48.36713 3.87051 18235 ft 395 kts 332°
2026-05-01 08:41 48.39143 3.85095 18245 ft 396 kts 332°
2026-05-01 08:41 48.41576 3.83138 18239 ft 397 kts 332°
2026-05-01 08:41 48.44011 3.81179 18243 ft 397 kts 332°
2026-05-01 08:42 48.46435 3.79224 18243 ft 396 kts 332°
2026-05-01 08:42 48.48856 3.77271 18246 ft 397 kts 332°
2026-05-01 08:42 48.51280 3.75303 18249 ft 396 kts 330°
2026-05-01 08:42 48.53524 3.72859 18250 ft 396 kts 317°
2026-05-01 08:43 48.55354 3.69800 18255 ft 395 kts 304°
2026-05-01 08:43 48.56848 3.66327 18256 ft 394 kts 301°
2026-05-01 08:43 48.58336 3.62843 18254 ft 395 kts 301°
2026-05-01 08:43 48.59835 3.59360 18257 ft 395 kts 302°
2026-05-01 08:44 48.61335 3.55875 18252 ft 395 kts 301°
2026-05-01 08:44 48.62828 3.52398 18072 ft 395 kts 301°
2026-05-01 08:44 48.64322 3.48913 17931 ft 393 kts 301°
2026-05-01 08:44 48.65809 3.45439 17798 ft 392 kts 301°
2026-05-01 08:45 48.67288 3.41975 17641 ft 391 kts 301°
2026-05-01 08:45 48.68742 3.38562 17495 ft 391 kts 301°
2026-05-01 08:45 48.70233 3.35061 17349 ft 390 kts 301°
2026-05-01 08:45 48.71680 3.31656 17216 ft 389 kts 301°
2026-05-01 08:46 48.73141 3.28215 17069 ft 388 kts 301°
2026-05-01 08:46 48.74599 3.24781 16927 ft 387 kts 301°
2026-05-01 08:46 48.76053 3.21346 16789 ft 387 kts 301°
2026-05-01 08:46 48.77504 3.17917 16646 ft 386 kts 301°
2026-05-01 08:47 48.78954 3.14487 16506 ft 385 kts 301°
2026-05-01 08:47 48.80398 3.11067 16375 ft 384 kts 301°
2026-05-01 08:47 48.81838 3.07648 16212 ft 383 kts 301°
2026-05-01 08:47 48.83270 3.04246 16093 ft 383 kts 301°
2026-05-01 08:48 48.84777 3.00914 15936 ft 383 kts 307°
2026-05-01 08:48 48.86554 2.97915 15826 ft 380 kts 312°
2026-05-01 08:48 48.88308 2.95042 15730 ft 370 kts 311°
2026-05-01 08:48 48.90017 2.92209 15617 ft 357 kts 311°
2026-05-01 08:49 48.91660 2.89471 15497 ft 345 kts 311°
2026-05-01 08:49 48.93081 2.86630 15335 ft 333 kts 295°
2026-05-01 08:49 48.93746 2.83320 14973 ft 326 kts 271°
2026-05-01 08:49 48.93640 2.79918 14918 ft 319 kts 261°
2026-05-01 08:50 48.93392 2.76537 14860 ft 319 kts 261°
2026-05-01 08:50 48.93157 2.73214 14838 ft 319 kts 261°
2026-05-01 08:50 48.92944 2.69846 14799 ft 319 kts 262°
2026-05-01 08:50 48.92749 2.66487 14731 ft 318 kts 262°
2026-05-01 08:51 48.92565 2.63120 14422 ft 320 kts 262°
2026-05-01 08:51 48.92383 2.59744 14073 ft 320 kts 262°
2026-05-01 08:51 48.92203 2.56421 13558 ft 319 kts 262°
2026-05-01 08:51 48.92024 2.53087 13045 ft 314 kts 263°
2026-05-01 08:52 48.91845 2.49786 12540 ft 311 kts 263°
2026-05-01 08:52 48.91666 2.46524 12032 ft 308 kts 263°
2026-05-01 08:52 48.91488 2.43307 11549 ft 304 kts 263°
2026-05-01 08:52 48.91310 2.40114 11049 ft 301 kts 263°
2026-05-01 08:53 48.91132 2.36953 10569 ft 298 kts 263°
2026-05-01 08:53 48.90955 2.33824 10078 ft 295 kts 263°
2026-05-01 08:53 48.90782 2.30726 9567 ft 292 kts 263°
2026-05-01 08:53 48.90610 2.27644 8973 ft 291 kts 263°
2026-05-01 08:54 48.90436 2.24586 8507 ft 289 kts 263°
2026-05-01 08:54 48.90262 2.21564 8149 ft 286 kts 263°
2026-05-01 08:54 48.90090 2.18611 7821 ft 283 kts 263°
2026-05-01 08:54 48.89918 2.15643 7448 ft 282 kts 263°
2026-05-01 08:55 48.89746 2.12685 7102 ft 280 kts 263°
2026-05-01 08:55 48.89750 2.09736 6836 ft 281 kts 281°
2026-05-01 08:55 48.90549 2.07032 6669 ft 284 kts 306°
2026-05-01 08:55 48.92046 2.05053 6187 ft 287 kts 333°
2026-05-01 08:56 48.93929 2.04426 5963 ft 272 kts
2026-05-01 08:56 48.95586 2.05384 5804 ft 249 kts 43°
2026-05-01 08:56 48.96489 2.07457 5750 ft 229 kts 74°
2026-05-01 08:56 48.96805 2.09778 5606 ft 219 kts 85°
2026-05-01 08:57 48.96943 2.12038 5282 ft 208 kts 88°
2026-05-01 08:57 48.97051 2.14223 5027 ft 206 kts 88°
2026-05-01 08:57 48.97169 2.16351 5009 ft 199 kts 88°
2026-05-01 08:57 48.97280 2.18437 4982 ft 196 kts 88°
2026-05-01 08:58 48.97381 2.20504 4973 ft 197 kts 88°
2026-05-01 08:58 48.97495 2.22569 4752 ft 199 kts 88°
2026-05-01 08:58 48.97602 2.24645 4460 ft 196 kts 88°
2026-05-01 08:58 48.97716 2.26695 4199 ft 191 kts 88°
2026-05-01 08:59 48.97814 2.28713 3947 ft 193 kts 88°
2026-05-01 08:59 48.97930 2.30749 3690 ft 192 kts 88°
2026-05-01 08:59 48.98034 2.32741 3420 ft 186 kts 88°
2026-05-01 08:59 48.98141 2.34682 3178 ft 184 kts 87°
2026-05-01 09:00 48.98243 2.36614 2938 ft 184 kts 88°
2026-05-01 09:00 48.98338 2.38571 2692 ft 183 kts 88°
2026-05-01 09:00 48.98442 2.40396 2448 ft 168 kts 88°
2026-05-01 09:00 48.98534 2.42137 2220 ft 162 kts 88°
2026-05-01 09:01 48.98612 2.43819 2026 ft 162 kts 88°
2026-05-01 09:01 48.98686 2.45485 1779 ft 152 kts 88°
2026-05-01 09:01 48.98781 2.47061 1563 ft 144 kts 87°
2026-05-01 09:01 48.98873 2.48567 1368 ft 143 kts 88°
2026-05-01 09:02 48.98960 2.50067 1143 ft 139 kts 88°
2026-05-01 09:02 48.99034 2.51506 959 ft 139 kts 88°
2026-05-01 09:02 48.99104 2.52947 809 ft 136 kts 88°
2026-05-01 09:02 48.99182 2.54404 641 ft 137 kts 88°
2026-05-01 09:03 48.99255 2.55861 461 ft 138 kts 87°
2026-05-01 09:03 48.99331 2.57297 360 ft 124 kts 86°
2026-05-01 09:03 48.99385 2.58378 365 ft 84 kts 86°
2026-05-01 09:03 48.99428 2.59128 359 ft 61 kts 85°
2026-05-01 09:04 48.99457 2.59683 363 ft 46 kts 86°
2026-05-01 09:04 48.99505 2.59920 365 ft 16 kts 39°
2026-05-01 09:04 48.99615 2.59976 362 ft 15 kts 334°
2026-05-01 09:04 48.99640 2.59845 364 ft 15 kts 268°
2026-05-01 09:05 48.99657 2.59700 366 ft 11 kts 335°
2026-05-01 09:05 48.99759 2.59681 365 ft 18 kts 356°
2026-05-01 09:05 48.99894 2.59665 359 ft 21 kts 355°
2026-05-01 09:05 49.00031 2.59647 365 ft 13 kts 354°
2026-05-01 09:06 49.00080 2.59561 364 ft 13 kts 270°
2026-05-01 09:06 49.00070 2.59397 362 ft 18 kts 264°
2026-05-01 09:06 49.00061 2.59191 365 ft 21 kts 266°
2026-05-01 09:06 49.00048 2.58962 365 ft 21 kts 264°
2026-05-01 09:07 49.00041 2.58847 359 ft 2 kts 264°
2026-05-01 09:07 49.00051 2.58786 368 ft 7 kts 326°
2026-05-01 09:07 49.00126 2.58767 361 ft 14 kts 357°
2026-05-01 09:07 49.00204 2.58756 365 ft 5 kts 329°
2026-05-01 09:08 49.00214 2.58714 358 ft 6 kts 264°
2026-05-01 09:08 49.00210 2.58652 358 ft 1 kts 263°
2026-05-01 09:08 49.00210 2.58651 358 ft 0 kts 263°